DW9210 Weather Reports


Display with metric or nautical units.
time (UTC)temp
F
wind
direction
speed
MPH
gust
MPH
rain 1hr
in
rain 24hr
in
rain mn
in
humidity
%
barometer
mb
20260902182503 94 222 3.0 8.0 0.00 0.00 0.00 56 1015.8
20260902182003 94 219 2.0 8.0 0.00 0.00 0.00 57 1015.9
20260902181524 93 255 1.0 4.0 0.00 0.00 0.00 60 1016.0
20260902181003 94 258 2.0 6.0 0.00 0.00 0.00 57 1016.0
20260902180503 94 261 3.0 7.0 0.00 0.00 0.00 55 1016.0
20260902180024 95 258 3.0 7.0 0.00 0.00 0.00 56 1016.1
20260902175503 94 238 3.0 8.0 0.00 0.00 0.00 58 1016.2
20260902175003 94 233 4.0 11.0 0.00 0.00 0.00 54 1016.2
20260902174503 94 244 4.0 11.0 0.00 0.00 0.00 53 1016.3
20260902174003 94 262 3.0 9.0 0.00 0.00 0.00 55 1016.3
20260902173503 94 274 3.0 7.0 0.00 0.00 0.00 62 1016.4
20260902173024 94 270 3.0 8.0 0.00 0.00 0.00 55 1016.5
20260902172503 94 273 3.0 8.0 0.00 0.00 0.00 63 1016.5
20260902172004 94 280 3.0 7.0 0.00 0.00 0.00 61 1016.6
20260902171503 93 279 4.0 8.0 0.00 0.00 0.00 62 1016.7
20260902171024 93 278 4.0 8.0 0.00 0.00 0.00 57 1016.7
20260902170503 93 277 3.0 7.0 0.00 0.00 0.00 63 1016.8
20260902170003 93 273 3.0 7.0 0.00 0.00 0.00 59 1016.8
20260902165503 93 261 3.0 9.0 0.00 0.00 0.00 61 1017.0
20260902165024 93 258 3.0 9.0 0.00 0.00 0.00 59 1017.0
20260902164503 93 274 3.0 7.0 0.00 0.00 0.00 62 1017.1
20260902164003 92 269 3.0 5.0 0.00 0.00 0.00 66 1017.1
20260902163524 92 269 3.0 5.0 0.00 0.00 0.00 63 1017.1
20260902163003 92 268 2.0 5.0 0.00 0.00 0.00 66 1017.3
20260902162503 92 255 3.0 6.0 0.00 0.00 0.00 61 1017.3
20260902162003 92 262 3.0 6.0 0.00 0.00 0.00 61 1017.3
20260902161503 92 260 3.0 6.0 0.00 0.00 0.00 64 1017.3
20260902161003 92 258 3.0 7.0 0.00 0.00 0.00 62 1017.3
20260902160524 91 276 3.0 7.0 0.00 0.00 0.00 61 1017.3
20260902160024 91 292 2.0 4.0 0.00 0.00 0.00 63 1017.2
20260902155503 91 275 2.0 5.0 0.00 0.00 0.00 65 1017.2
20260902155003 91 262 3.0 6.0 0.00 0.00 0.00 63 1017.4
20260902154503 91 265 2.0 7.0 0.00 0.00 0.00 62 1017.4
20260902154003 90 264 2.0 7.0 0.00 0.00 0.00 65 1017.4
20260902153503 90 280 2.0 5.0 0.00 0.00 0.00 67 1017.4
20260902153003 90 293 2.0 5.0 0.00 0.00 0.00 68 1017.5
20260902152503 90 281 2.0 5.0 0.00 0.00 0.00 68 1017.5
20260902152003 90 287 2.0 5.0 0.00 0.00 0.00 68 1017.4
20260902151503 89 283 3.0 5.0 0.00 0.00 0.00 68 1017.4
20260902151003 89 294 2.0 5.0 0.00 0.00 0.00 71 1017.4
20260902150503 89 296 2.0 5.0 0.00 0.00 0.00 70 1017.3
20260902150003 88 283 2.0 5.0 0.00 0.00 0.00 71 1017.3
20260902145503 88 270 2.0 5.0 0.00 0.00 0.00 69 1017.3
20260902145003 88 267 2.0 4.0 0.00 0.00 0.00 73 1017.3
20260902144503 87 273 3.0 4.0 0.00 0.00 0.00 71 1017.3
20260902144003 87 268 2.0 4.0 0.00 0.00 0.00 74 1017.3
20260902143503 86 268 2.0 4.0 0.00 0.00 0.00 73 1017.3
20260902143003 86 272 2.0 5.0 0.00 0.00 0.00 74 1017.3
20260902142503 86 268 2.0 5.0 0.00 0.00 0.00 74 1017.3
20260902142003 86 261 3.0 6.0 0.00 0.00 0.00 77 1017.3
20260902141503 85 262 4.0 6.0 0.00 0.00 0.00 75 1017.3
20260902141003 85 266 3.0 6.0 0.00 0.00 0.00 74 1017.3
20260902140503 84 266 2.0 6.0 0.00 0.00 0.00 75 1017.3
20260902140003 84 263 3.0 7.0 0.00 0.00 0.00 79 1017.3
20260902135503 84 262 4.0 7.0 0.00 0.00 0.00 77 1017.4
20260902135003 84 261 3.0 6.0 0.00 0.00 0.00 76 1017.3
20260902134503 83 253 2.0 5.0 0.00 0.00 0.00 80 1017.4
20260902134003 83 250 1.0 3.0 0.00 0.00 0.00 82 1017.3
20260902133503 82 243 1.0 3.0 0.00 0.00 0.00 81 1017.4
20260902133003 82 235 1.0 6.0 0.00 0.00 0.00 81 1017.4
20260902132524 81 239 2.0 6.0 0.00 0.00 0.00 81 1017.4
20260902132024 81 248 1.0 4.0 0.00 0.00 0.00 82 1017.3
20260902131503 81 218 1.0 4.0 0.00 0.00 0.00 82 1017.3
20260902131003 80 193 1.0 5.0 0.00 0.00 0.00 85 1017.3
20260902130503 79 191 1.0 5.0 0.00 0.00 0.00 85 1017.2
20260902130003 79 193 2.0 7.0 0.00 0.00 0.00 87 1017.2
20260902125503 78 199 1.0 7.0 0.00 0.00 0.00 88 1017.2
20260902125003 77 0 0.0 0.0 0.00 0.00 0.00 90 1017.2
20260902124503 77 0 0.0 0.0 0.00 0.00 0.00 92 1017.1
20260902124003 76 0 0.0 0.0 0.00 0.00 0.00 93 1017.1
20260902123524 75 0 0.0 0.0 0.00 0.00 0.00 95 1017.1
20260902123024 74 0 0.0 0.0 0.00 0.00 0.00 95 1017.2
20260902122503 74 0 0.0 0.0 0.00 0.00 0.00 97 1017.2
20260902122003 73 0 0.0 0.0 0.00 0.00 0.00 98 1017.2
20260902121503 72 0 0.0 0.0 0.00 0.00 0.00 98 1017.1
20260902121003 71 0 0.0 0.0 0.00 0.00 0.00 98 1017.1
20260902120503 71 0 0.0 0.0 0.00 0.00 0.00 98 1017.0
20260902120003 70 0 0.0 0.0 0.00 0.00 0.00 98 1016.9
20260902115503 70 0 0.0 0.0 0.00 0.00 0.00 98 1016.8
20260902115003 69 0 0.0 0.0 0.00 0.00 0.00 97 1016.8
20260902114503 69 0 0.0 0.0 0.00 0.00 0.00 98 1016.8
20260902114024 69 0 0.0 0.0 0.00 0.00 0.00 98 1016.8
20260902113503 68 0 0.0 0.0 0.00 0.00 0.00 97 1016.7
20260902113003 68 0 0.0 0.0 0.00 0.00 0.00 97 1016.7
20260902112524 67 0 0.0 0.0 0.00 0.00 0.00 97 1016.6
20260902112024 68 0 0.0 0.0 0.00 0.00 0.00 96 1016.5
20260902111503 68 0 0.0 0.0 0.00 0.00 0.00 97 1016.5
20260902111003 68 0 0.0 0.0 0.00 0.00 0.00 97 1016.5
20260902110503 68 0 0.0 0.0 0.00 0.00 0.00 97 1016.5
20260902110005 68 0 0.0 0.0 0.00 0.00 0.00 97 1016.3
20260902105503 68 0 0.0 0.0 0.00 0.00 0.00 97 1016.3
20260902105003 68 0 0.0 0.0 0.00 0.00 0.00 97 1016.3
20260902104503 68 0 0.0 0.0 0.00 0.00 0.00 97 1016.3
20260902104003 68 0 0.0 0.0 0.00 0.00 0.00 97 1016.3
20260902103503 68 0 0.0 0.0 0.00 0.00 0.00 96 1016.2
20260902103024 68 0 0.0 0.0 0.00 0.00 0.00 96 1016.2
20260902102503 68 0 0.0 0.0 0.00 0.00 0.00 96 1016.2
20260902102003 68 0 0.0 0.0 0.00 0.00 0.00 97 1016.3
20260902101503 68 0 0.0 0.0 0.00 0.00 0.00 97 1016.3
20260902101003 69 0 0.0 0.0 0.00 0.00 0.00 97 1016.2
20260902100503 69 0 0.0 0.0 0.00 0.00 0.00 97 1016.2
20260902100003 68 0 0.0 0.0 0.00 0.00 0.00 97 1016.1
20260902095503 69 0 0.0 0.0 0.00 0.00 0.00 97 1016.1
20260902095003 69 0 0.0 0.0 0.00 0.00 0.00 97 1016.0
20260902094503 69 0 0.0 0.0 0.00 0.00 0.00 97 1016.1
20260902094003 69 0 0.0 0.0 0.00 0.00 0.00 97 1016.1
20260902093503 68 0 0.0 0.0 0.00 0.00 0.00 97 1016.1
20260902093003 68 0 0.0 0.0 0.00 0.00 0.00 97 1016.0
20260902092503 68 0 0.0 0.0 0.00 0.00 0.00 97 1016.0
20260902092003 68 0 0.0 0.0 0.00 0.00 0.00 97 1016.0
20260902091503 68 0 0.0 0.0 0.00 0.00 0.00 97 1016.1
20260902091003 68 0 0.0 0.0 0.00 0.00 0.00 97 1016.0
20260902090524 68 0 0.0 0.0 0.00 0.00 0.00 97 1016.0
20260902090003 68 0 0.0 0.0 0.00 0.00 0.00 97 1016.0
20260902085503 68 0 0.0 0.0 0.00 0.00 0.00 96 1016.0
20260902085003 68 0 0.0 0.0 0.00 0.00 0.00 96 1016.0
20260902084524 69 0 0.0 0.0 0.00 0.00 0.00 96 1015.9
20260902084003 69 0 0.0 0.0 0.00 0.00 0.00 96 1015.9
20260902083503 69 0 0.0 0.0 0.00 0.00 0.00 96 1015.9
20260902083024 69 0 0.0 0.0 0.00 0.00 0.00 97 1015.8
20260902082503 69 0 0.0 0.0 0.00 0.00 0.00 97 1015.7
20260902082024 69 0 0.0 0.0 0.00 0.00 0.00 97 1015.7
20260902081503 69 0 0.0 0.0 0.00 0.00 0.00 96 1015.7
20260902081003 69 0 0.0 0.0 0.00 0.00 0.00 97 1015.7
20260902080503 69 0 0.0 0.0 0.00 0.00 0.00 96 1015.6
20260902080003 69 0 0.0 0.0 0.00 0.00 0.00 96 1015.6
20260902075524 69 0 0.0 0.0 0.00 0.00 0.00 96 1015.7
20260902075024 69 0 0.0 0.0 0.00 0.00 0.00 96 1015.6
20260902074503 69 0 0.0 0.0 0.00 0.00 0.00 96 1015.5
20260902074003 69 0 0.0 0.0 0.00 0.00 0.00 97 1015.5
20260902073503 69 0 0.0 0.0 0.00 0.00 0.00 97 1015.5
20260902073003 69 0 0.0 0.0 0.00 0.00 0.00 96 1015.5
20260902072524 69 0 0.0 0.0 0.00 0.00 0.00 96 1015.5
20260902072003 69 0 0.0 0.0 0.00 0.00 0.00 96 1015.5
20260902071524 70 0 0.0 0.0 0.00 0.00 0.00 96 1015.5
20260902071003 70 0 0.0 0.0 0.00 0.00 0.00 97 1015.5
20260902070503 69 0 0.0 0.0 0.00 0.00 0.00 96 1015.4
20260902070024 69 0 0.0 0.0 0.00 0.00 0.00 96 1015.3
20260902065503 69 0 0.0 0.0 0.00 0.00 0.00 96 1015.4
20260902065003 70 0 0.0 0.0 0.00 0.00 0.00 96 1015.4
20260902064503 70 0 0.0 0.0 0.00 0.00 0.00 96 1015.5
20260902064003 70 0 0.0 0.0 0.00 0.00 0.00 96 1015.4
20260902063503 70 0 0.0 0.0 0.00 0.00 0.00 96 1015.5
20260902063003 70 0 0.0 0.0 0.00 0.00 0.00 96 1015.5
20260902062503 70 0 0.0 0.0 0.00 0.00 0.00 96 1015.5
20260902062003 70 0 0.0 0.0 0.00 0.00 0.00 96 1015.6
20260902061524 70 0 0.0 0.0 0.00 0.00 0.00 96 1015.7
20260902061003 70 0 0.0 0.0 0.00 0.00 0.00 96 1015.7
20260902060503 71 0 0.0 0.0 0.00 0.00 0.00 96 1015.7
20260902060003 71 0 0.0 0.0 0.00 0.00 0.00 96 1015.7
20260902055524 71 0 0.0 0.0 0.00 0.00 0.00 96 1015.7
20260902055003 71 0 0.0 0.0 0.00 0.00 0.00 96 1015.8
20260902054503 71 0 0.0 0.0 0.00 0.00 0.00 96 1015.8
20260902054003 71 0 0.0 0.0 0.00 0.00 0.00 95 1015.7
20260902053503 71 0 0.0 0.0 0.00 0.00 0.00 95 1015.7
20260902053003 71 0 0.0 0.0 0.00 0.00 0.00 96 1015.7
20260902052503 71 0 0.0 0.0 0.00 0.00 0.00 96 1015.7
20260902052024 71 0 0.0 0.0 0.00 0.00 0.00 96 1015.8
20260902051503 71 0 0.0 0.0 0.00 0.00 0.00 96 1015.8
20260902051003 71 0 0.0 0.0 0.00 0.00 0.00 96 1015.8
20260902050503 71 0 0.0 0.0 0.00 0.00 0.00 95 1015.8
20260902050005 71 0 0.0 0.0 0.00 0.00 0.00 95 1015.7
20260902045503 71 0 0.0 0.0 0.00 0.00 0.00 95 1015.7
20260902045003 72 0 0.0 0.0 0.00 0.00 0.00 95 1015.7
20260902044503 72 0 0.0 0.0 0.00 0.00 0.00 95 1015.6
20260902044003 72 0 0.0 0.0 0.00 0.00 0.00 96 1015.7
20260902043503 72 0 0.0 0.0 0.00 0.00 0.00 96 1015.7
20260902043003 72 0 0.0 0.0 0.00 0.00 0.00 95 1015.6
20260902042524 72 0 0.0 0.0 0.00 0.00 0.00 95 1015.6
20260902042003 72 0 0.0 0.0 0.00 0.00 0.00 95 1015.6
20260902041503 72 0 0.0 0.0 0.00 0.00 0.00 95 1015.7
20260902041003 72 0 0.0 0.0 0.00 0.00 0.00 95 1015.7
20260902040503 72 0 0.0 0.0 0.00 0.00 0.00 95 1015.7
20260902040003 72 0 0.0 0.0 0.00 0.00 0.00 95 1015.6
20260902035503 72 0 0.0 0.0 0.00 0.00 0.00 95 1015.6
20260902035003 73 0 0.0 0.0 0.00 0.00 0.00 95 1015.6
20260902034524 73 0 0.0 0.0 0.00 0.00 0.00 95 1015.6
20260902034027 73 0 0.0 0.0 0.00 0.00 0.00 95 1015.7
20260902033503 73 0 0.0 0.0 0.00 0.00 0.00 95 1015.7
20260902033003 73 0 0.0 0.0 0.00 0.00 0.00 95 1015.7
20260902032503 73 0 0.0 0.0 0.00 0.00 0.00 94 1015.7
20260902032003 73 0 0.0 0.0 0.00 0.00 0.00 94 1015.7
20260902031503 73 0 0.0 0.0 0.00 0.00 0.00 95 1015.7
20260902031024 73 0 0.0 0.0 0.00 0.00 0.00 94 1015.7
20260902030503 73 0 0.0 0.0 0.00 0.00 0.00 94 1015.7
20260902030003 73 0 0.0 0.0 0.00 0.00 0.00 94 1015.7
20260902025524 74 0 0.0 0.0 0.00 0.00 0.00 94 1015.6
20260902025003 74 0 0.0 0.0 0.00 0.00 0.00 94 1015.7
20260902024503 74 0 0.0 0.0 0.00 0.00 0.00 93 1015.7
20260902024003 74 0 0.0 0.0 0.00 0.00 0.00 93 1015.8
20260902023503 74 0 0.0 0.0 0.00 0.00 0.00 94 1015.7
20260902023003 74 0 0.0 0.0 0.00 0.00 0.00 94 1015.6
20260902022524 75 0 0.0 0.0 0.00 0.00 0.00 93 1015.6
20260902022003 75 0 0.0 0.0 0.00 0.00 0.00 92 1015.7
20260902021524 75 0 0.0 0.0 0.00 0.00 0.00 93 1015.6
20260902021003 75 0 0.0 0.0 0.00 0.00 0.00 93 1015.6
20260902020503 75 0 0.0 0.0 0.00 0.00 0.00 92 1015.6
20260902020024 76 0 0.0 0.0 0.00 0.00 0.00 92 1015.5
20260902015503 76 0 0.0 0.0 0.00 0.00 0.00 92 1015.5
20260902015024 76 0 0.0 0.0 0.00 0.00 0.00 91 1015.6
20260902014503 76 0 0.0 0.0 0.00 0.00 0.00 91 1015.5
20260902014003 76 0 0.0 0.0 0.00 0.00 0.00 91 1015.5
20260902013503 77 0 0.0 0.0 0.00 0.00 0.00 90 1015.5
20260902013024 77 0 0.0 0.0 0.00 0.00 0.00 89 1015.5
20260902012503 77 0 0.0 0.0 0.00 0.00 0.00 89 1015.4
20260902012024 78 0 0.0 0.0 0.00 0.00 0.00 89 1015.4
20260902011503 78 0 0.0 0.0 0.00 0.00 0.00 87 1015.3
20260902011024 78 0 0.0 0.0 0.00 0.00 0.00 85 1015.3
20260902010503 78 0 0.0 0.0 0.00 0.00 0.00 85 1015.2
20260902010003 79 0 0.0 0.0 0.00 0.00 0.00 85 1015.2
20260902005503 79 0 0.0 0.0 0.00 0.00 0.00 83 1015.1
20260902005024 80 0 0.0 0.0 0.00 0.00 0.00 82 1015.1
20260902004503 80 0 0.0 0.0 0.00 0.00 0.00 82 1015.1
20260902004003 81 0 0.0 0.0 0.00 0.00 0.00 81 1015.0
20260902003503 81 0 0.0 0.0 0.00 0.00 0.00 81 1015.0
20260902003003 82 0 0.0 0.0 0.00 0.00 0.00 80 1014.9
20260902002524 82 0 0.0 0.0 0.00 0.00 0.00 79 1015.0
20260902002003 83 0 0.0 0.0 0.00 0.00 0.00 79 1015.0
20260902001524 83 231 0.0 1.0 0.00 0.00 0.00 76 1015.0
20260902001003 84 231 0.0 1.0 0.00 0.00 0.00 76 1015.1
20260902000503 85 0 0.0 0.0 0.00 0.00 0.00 75 1015.1
20260902000003 85 0 0.0 0.0 0.00 0.00 0.00 74 1015.1
20260901235503 86 229 0.0 1.0 0.00 0.00 0.00 73 1015.1
20260901235024 87 236 1.0 2.0 0.00 0.00 0.00 73 1015.2
20260901234503 88 240 0.0 2.0 0.00 0.00 0.00 72 1015.2
20260901234003 89 240 0.0 1.0 0.00 0.00 0.00 70 1015.3
20260901233503 89 240 0.0 2.0 0.00 0.00 0.00 69 1015.2
20260901233003 90 241 0.0 2.0 0.00 0.00 0.00 64 1015.3
20260901232503 91 241 0.0 1.0 0.00 0.00 0.00 63 1015.3
20260901232003 92 241 0.0 2.0 0.00 0.00 0.00 63 1015.4
20260901231503 92 241 1.0 2.0 0.00 0.00 0.00 59 1015.3
20260901231024 93 241 1.0 2.0 0.00 0.00 0.00 59 1015.4
20260901230503 93 254 1.0 2.0 0.00 0.00 0.00 59 1015.3
20260901230024 93 257 1.0 4.0 0.00 0.00 0.00 60 1015.4
20260901225503 93 255 2.0 5.0 0.00 0.00 0.00 57 1015.3
20260901225003 93 262 2.0 5.0 0.00 0.00 0.00 58 1015.4
20260901224503 93 258 2.0 5.0 0.00 0.00 0.00 58 1015.3
20260901224003 93 259 2.0 5.0 0.00 0.00 0.00 58 1015.4
20260901223503 93 266 2.0 4.0 0.00 0.00 0.00 58 1015.4
20260901223003 93 252 2.0 4.0 0.00 0.00 0.00 58 1015.4
20260901222503 93 243 1.0 4.0 0.00 0.00 0.00 58 1015.4
20260901222003 92 242 0.0 2.0 0.00 0.00 0.00 57 1015.4
20260901221503 92 243 0.0 3.0 0.00 0.00 0.00 63 1015.3
20260901221003 93 267 1.0 4.0 0.00 0.00 0.00 60 1015.3
20260901220503 93 271 2.0 5.0 0.00 0.00 0.00 56 1015.3
20260901220003 94 264 3.0 7.0 0.00 0.00 0.00 53 1015.2
20260901215503 95 252 2.0 7.0 0.00 0.00 0.00 54 1015.2
20260901215003 94 221 1.0 3.0 0.00 0.00 0.00 54 1015.2
20260901214503 94 220 0.0 2.0 0.00 0.00 0.00 54 1015.2
20260901214024 94 244 1.0 4.0 0.00 0.00 0.00 60 1015.2
20260901213503 94 247 2.0 4.0 0.00 0.00 0.00 56 1015.2
20260901213003 94 245 2.0 5.0 0.00 0.00 0.00 54 1015.2
20260901212503 94 234 1.0 5.0 0.00 0.00 0.00 52 1015.2
20260901212024 94 221 1.0 4.0 0.00 0.00 0.00 55 1015.3
20260901211503 94 230 1.0 4.0 0.00 0.00 0.00 56 1015.3
20260901211003 93 243 2.0 4.0 0.00 0.00 0.00 53 1015.3
20260901210524 93 251 2.0 7.0 0.00 0.00 0.00 54 1015.3
20260901210003 94 260 3.0 7.0 0.00 0.00 0.00 54 1015.3
20260901205524 94 270 4.0 8.0 0.00 0.00 0.00 54 1015.3
20260901205003 95 265 4.0 8.0 0.00 0.00 0.00 53 1015.4
20260901204503 95 256 3.0 7.0 0.00 0.00 0.00 52 1015.4
20260901204003 95 248 2.0 6.0 0.00 0.00 0.00 52 1015.5
20260901203524 95 243 2.0 6.0 0.00 0.00 0.00 54 1015.5
20260901203003 95 238 2.0 7.0 0.00 0.00 0.00 52 1015.6
20260901202503 94 238 2.0 7.0 0.00 0.00 0.00 54 1015.6
20260901202003 94 253 4.0 8.0 0.00 0.00 0.00 53 1015.6
20260901201503 94 260 5.0 9.0 0.00 0.00 0.00 52 1015.7
20260901201003 94 257 5.0 9.0 0.00 0.00 0.00 54 1015.7
20260901200503 93 253 3.0 9.0 0.00 0.00 0.00 55 1015.8
20260901200003 93 268 1.0 5.0 0.00 0.00 0.00 57 1015.7
20260901195503 93 266 3.0 8.0 0.00 0.00 0.00 56 1015.9
20260901195024 94 253 3.0 8.0 0.00 0.00 0.00 57 1015.9
20260901194503 94 240 3.0 6.0 0.00 0.00 0.00 51 1015.9
20260901194003 94 240 2.0 6.0 0.00 0.00 0.00 53 1016.0
20260901193503 94 262 3.0 10.0 0.00 0.00 0.00 53 1016.0
20260901193003 94 261 4.0 10.0 0.00 0.00 0.00 56 1016.0
20260901192503 94 243 3.0 9.0 0.00 0.00 0.00 54 1016.1
20260901192003 93 254 3.0 9.0 0.00 0.00 0.00 53 1016.2
20260901191503 93 288 2.0 4.0 0.00 0.00 0.00 59 1016.2
20260901191024 93 267 2.0 5.0 0.00 0.00 0.00 56 1016.3
20260901190524 93 246 2.0 7.0 0.00 0.00 0.00 57 1016.3
20260901190003 94 242 2.0 8.0 0.00 0.00 0.00 56 1016.4
20260901185503 93 253 3.0 8.0 0.00 0.00 0.00 56 1016.5
20260901185024 93 271 3.0 8.0 0.00 0.00 0.00 55 1016.5
20260901184503 93 241 3.0 8.0 0.00 0.00 0.00 55 1016.5
20260901184003 93 232 2.0 6.0 0.00 0.00 0.00 55 1016.5
20260901183524 93 273 3.0 7.0 0.00 0.00 0.00 55 1016.7
20260901183003 93 274 4.0 9.0 0.00 0.00 0.00 58 1016.7